FW5359 Weather Reports


time (UTC)temp
C
wind
direction
speed
KPH
gust
KPH
rain 1hr
cm
rain 24hr
cm
rain mn
cm
humidity
%
barometer
mb
20260903215658 36 176 4.8 12.9 0.00 0.00 0.00 43 1011.4
20260903215158 36 134 4.8 12.9 0.00 0.00 0.00 43 1011.4
20260903214657 36 98 4.8 12.9 0.00 0.00 0.00 43 1011.5
20260903214157 37 131 4.8 12.9 0.00 0.00 0.00 43 1011.5
20260903213658 37 126 4.8 11.3 0.00 0.00 0.00 43 1011.5
20260903213156 37 96 3.2 14.5 0.00 0.00 0.00 43 1011.5
20260903212656 37 60 3.2 16.1 0.00 0.00 0.00 43 1011.6
20260903212154 37 116 3.2 16.1 0.00 0.00 0.00 43 1011.8
20260903211919 37 155 1.6 12.9 0.00 0.00 0.00 43 1011.8
20260903211415 36 155 3.2 12.9 0.00 0.00 0.00 44 1011.8
20260903210637 36 157 4.8 14.5 0.00 0.00 0.00 44 1011.9
20260903210130 36 133 6.4 14.5 0.00 0.00 0.00 44 1012.1
20260903205625 36 170 4.8 12.9 0.00 0.00 0.00 44 1012.1
20260903205119 36 126 3.2 8.0 0.00 0.00 0.00 44 1012.1
20260903204844 36 145 3.2 8.0 0.00 0.00 0.00 45 1012.4
20260903204107 36 117 3.2 8.0 0.00 0.00 0.00 43 1012.2
20260903203601 37 117 3.2 9.7 0.00 0.00 0.00 43 1012.5
20260903203055 37 252 4.8 12.9 0.00 0.00 0.00 43 1012.6
20260903202549 36 251 4.8 12.9 0.00 0.00 0.00 44 1012.6
20260903202043 36 147 3.2 11.3 0.00 0.00 0.00 45 1012.5
20260903201537 36 161 3.2 11.3 0.00 0.00 0.00 44 1012.7
20260903201031 36 163 3.2 9.7 0.00 0.00 0.00 46 1012.7
20260903200524 36 113 3.2 11.3 0.00 0.00 0.00 47 1012.7
20260903200019 36 179 3.2 11.3 0.00 0.00 0.00 46 1012.8
20260903195744 36 108 3.2 11.3 0.00 0.00 0.00 47 1012.7
20260903195007 36 101 4.8 14.5 0.00 0.00 0.00 48 1012.9
20260903194501 36 112 4.8 14.5 0.00 0.00 0.00 49 1012.9
20260903193955 36 52 3.2 11.3 0.00 0.00 0.00 49 1013.0
20260903193449 36 152 4.8 11.3 0.00 0.00 0.00 49 1013.1
20260903192943 36 161 4.8 11.3 0.00 0.00 0.00 48 1013.2
20260903192708 35 101 3.2 11.3 0.00 0.00 0.00 51 1013.2
20260903192205 35 159 3.2 14.5 0.00 0.00 0.00 51 1013.3
20260903191435 35 130 3.2 14.5 0.00 0.00 0.00 51 1013.4
20260903190935 35 196 4.8 17.7 0.00 0.00 0.00 53 1013.5
20260903190435 35 138 3.2 17.7 0.00 0.00 0.00 52 1013.6
20260903185933 35 156 3.2 12.9 0.00 0.00 0.00 52 1013.7
20260903185433 35 151 4.8 12.9 0.00 0.00 0.00 53 1013.7
20260903184936 35 111 4.8 11.3 0.00 0.00 0.00 52 1013.9
20260903184431 35 92 3.2 14.5 0.00 0.00 0.00 52 1014.0
20260903183931 35 182 3.2 14.5 0.00 0.00 0.00 53 1014.0
20260903183701 34 213 4.8 16.1 0.00 0.00 0.00 54 1014.0
20260903182927 34 167 4.8 16.1 0.00 0.00 0.00 55 1014.2
20260903182425 34 154 3.2 11.3 0.00 0.00 0.00 55 1014.3
20260903181925 34 188 4.8 14.5 0.00 0.00 0.00 55 1014.4
20260903181425 34 161 4.8 14.5 0.00 0.00 0.00 57 1014.5
20260903180922 34 228 3.2 12.9 0.00 0.00 0.00 57 1014.5
20260903180423 34 173 4.8 16.1 0.00 0.00 0.00 57 1014.5
20260903175923 33 161 4.8 16.1 0.00 0.00 0.00 56 1014.7
20260903175420 33 150 4.8 16.1 0.00 0.00 0.00 58 1014.8
20260903174921 33 124 4.8 12.9 0.00 0.00 0.00 59 1014.8
20260903174421 33 193 4.8 12.9 0.00 0.00 0.00 59 1014.8
20260903174151 33 134 4.8 11.3 0.00 0.00 0.00 58 1014.9
20260903173423 33 150 4.8 11.3 0.00 0.00 0.00 58 1015.0
20260903172921 33 147 3.2 16.1 0.00 0.00 0.00 60 1015.0
20260903172421 33 204 3.2 16.1 0.00 0.00 0.00 61 1015.2
20260903171922 33 117 3.2 12.9 0.00 0.00 0.00 62 1015.2
20260903171421 33 196 3.2 9.7 0.00 0.00 0.00 62 1015.3
20260903171151 32 215 3.2 9.7 0.00 0.00 0.00 62 1015.3
20260903170651 32 235 3.2 11.3 0.00 0.00 0.00 61 1015.4
20260903165921 32 200 3.2 11.3 0.00 0.00 0.00 63 1015.5
20260903165421 32 197 4.8 12.9 0.00 0.00 0.00 65 1015.5
20260903164916 31 132 4.8 12.9 0.00 0.00 0.00 65 1015.6
20260903164649 31 203 4.8 11.3 0.00 0.00 0.00 65 1015.7
20260903163917 31 178 3.2 9.7 0.00 0.00 0.00 66 1015.6
20260903163417 31 240 3.2 11.3 0.00 0.00 0.00 69 1015.7
20260903162917 31 259 3.2 11.3 0.00 0.00 0.00 68 1015.7
20260903162417 31 200 3.2 11.3 0.00 0.00 0.00 67 1015.7
20260903161917 31 205 4.8 12.9 0.00 0.00 0.00 68 1015.7
20260903161417 31 146 4.8 16.1 0.00 0.00 0.00 70 1015.7
20260903160918 30 238 4.8 16.1 0.00 0.00 0.00 70 1015.7
20260903160412 30 169 3.2 12.9 0.00 0.00 0.00 71 1015.6
20260903155910 30 180 3.2 9.7 0.00 0.00 0.00 71 1015.6
20260903155411 30 202 3.2 9.7 0.00 0.00 0.00 70 1015.6
20260903154911 30 229 3.2 11.3 0.00 0.00 0.00 72 1015.6
20260903154411 30 165 3.2 11.3 0.00 0.00 0.00 72 1015.6
20260903153911 30 182 3.2 9.7 0.00 0.00 0.00 73 1015.7
20260903153411 29 187 3.2 12.9 0.00 0.00 0.00 74 1015.6
20260903152909 29 215 3.2 12.9 0.00 0.00 0.00 75 1015.7
20260903152409 29 238 3.2 9.7 0.00 0.00 0.00 75 1015.7
20260903151912 28 217 3.2 11.3 0.00 0.00 0.00 76 1015.7
20260903151406 28 204 3.2 11.3 0.00 0.00 0.00 77 1015.7
20260903150907 28 213 3.2 8.0 0.00 0.00 0.00 77 1015.6
20260903150407 28 213 1.6 9.7 0.00 0.00 0.00 77 1015.7
20260903145907 28 223 3.2 12.9 0.00 0.00 0.00 78 1015.7
20260903145407 28 182 4.8 12.9 0.00 0.00 0.00 78 1015.8
20260903144905 28 269 3.2 20.9 0.00 0.00 0.00 78 1015.7
20260903144404 28 219 3.2 20.9 0.00 0.00 0.00 79 1015.7
20260903143858 28 262 3.2 12.9 0.00 0.00 0.00 80 1015.7
20260903143352 28 244 3.2 12.9 0.00 0.00 0.00 80 1015.7
20260903143116 27 196 3.2 9.7 0.00 0.00 0.00 81 1015.7
20260903142340 27 213 1.6 8.0 0.00 0.00 0.00 81 1015.8
20260903141834 27 244 1.6 8.0 0.00 0.00 0.00 82 1015.8
20260903141328 27 248 3.2 11.3 0.00 0.00 0.00 82 1015.8
20260903140822 27 156 3.2 11.3 0.00 0.00 0.00 82 1015.8
20260903140315 27 174 3.2 16.1 0.00 0.00 0.00 84 1015.8
20260903135811 26 215 3.2 16.1 0.00 0.00 0.00 84 1015.8
20260903135306 26 208 3.2 9.7 0.00 0.00 0.00 85 1015.9
20260903135029 26 206 1.6 6.4 0.00 0.00 0.00 85 1016.0
20260903134252 26 216 1.6 8.0 0.00 0.00 0.00 86 1016.1
20260903133746 26 216 1.6 8.0 0.00 0.00 0.00 86 1016.0
20260903133240 26 242 1.6 8.0 0.00 0.00 0.00 86 1016.0
20260903132733 26 242 1.6 8.0 0.00 0.00 0.00 87 1016.0
20260903132500 26 181 1.6 6.4 0.00 0.00 0.00 87 1015.9
20260903131722 26 207 1.6 4.8 0.00 0.00 0.00 87 1015.9
20260903131447 26 210 1.6 6.4 0.00 0.00 0.00 88 1015.9
20260903130710 25 210 1.6 6.4 0.00 0.00 0.00 88 1015.9
20260903130204 25 212 1.6 4.8 0.00 0.00 0.00 88 1015.9
20260903125658 25 213 0.0 3.2 0.00 0.00 0.00 88 1015.8
20260903125152 25 213 0.0 3.2 0.00 0.00 0.00 88 1015.8
20260903124916 25 213 0.0 4.8 0.00 0.00 0.00 88 1015.6
20260903124140 25 213 0.0 4.8 0.00 0.00 0.00 89 1015.7
20260903123634 25 213 1.6 4.8 0.00 0.00 0.00 88 1015.6
20260903123128 25 213 0.0 4.8 0.00 0.00 0.00 88 1015.5
20260903122622 25 212 0.0 4.8 0.00 0.00 0.00 88 1015.5
20260903122116 25 212 1.6 4.8 0.00 0.00 0.00 88 1015.4
20260903121609 25 212 1.6 6.4 0.00 0.00 0.00 88 1015.3
20260903121104 25 212 1.6 6.4 0.00 0.00 0.00 88 1015.3
20260903120558 25 211 1.6 4.8 0.00 0.00 0.00 88 1015.3
20260903115546 25 212 0.0 8.0 0.00 0.00 0.00 87 1015.2
20260903114538 25 212 1.6 6.4 0.00 0.00 0.00 87 1015.3
20260903114038 25 214 1.6 6.4 0.00 0.00 0.00 87 1015.2
20260903113537 25 213 1.6 6.4 0.00 0.00 0.00 87 1015.2
20260903113034 25 213 1.6 6.4 0.00 0.00 0.00 87 1015.2
20260903112807 26 213 1.6 6.4 0.00 0.00 0.00 87 1015.3
20260903112034 26 213 1.6 6.4 0.00 0.00 0.00 86 1015.2
20260903111532 26 197 1.6 9.7 0.00 0.00 0.00 86 1015.2
20260903111030 26 221 3.2 11.3 0.00 0.00 0.00 86 1015.2
20260903110530 26 240 3.2 11.3 0.00 0.00 0.00 86 1015.2
20260903110029 26 281 3.2 11.3 0.00 0.00 0.00 86 1015.2
20260903105528 26 215 3.2 11.3 0.00 0.00 0.00 86 1015.3
20260903105259 26 235 3.2 11.3 0.00 0.00 0.00 86 1015.3
20260903104526 26 232 3.2 11.3 0.00 0.00 0.00 85 1015.3
20260903104026 26 210 1.6 9.7 0.00 0.00 0.00 85 1015.2
20260903103755 26 232 1.6 8.0 0.00 0.00 0.00 86 1015.2
20260903103026 26 234 1.6 8.0 0.00 0.00 0.00 86 1015.3
20260903102758 26 208 1.6 4.8 0.00 0.00 0.00 86 1015.3
20260903102027 26 209 1.6 6.4 0.00 0.00 0.00 86 1015.3
20260903101525 26 221 1.6 6.4 0.00 0.00 0.00 86 1015.3
20260903101025 26 226 1.6 4.8 0.00 0.00 0.00 86 1015.2
20260903100522 26 226 1.6 12.9 0.00 0.00 0.00 86 1015.2
20260903100022 26 226 1.6 12.9 0.00 0.00 0.00 86 1015.2
20260903095753 26 236 1.6 11.3 0.00 0.00 0.00 86 1014.9
20260903095022 26 163 1.6 8.0 0.00 0.00 0.00 86 1014.9
20260903094522 26 161 1.6 8.0 0.00 0.00 0.00 86 1015.0
20260903094022 26 159 3.2 12.9 0.00 0.00 0.00 86 1015.2
20260903093522 26 159 4.8 12.9 0.00 0.00 0.00 86 1015.2
20260903093022 26 176 3.2 12.9 0.00 0.00 0.00 86 1015.2
20260903092522 26 159 3.2 11.3 0.00 0.00 0.00 86 1015.2
20260903092022 26 190 3.2 11.3 0.00 0.00 0.00 86 1015.3
20260903091522 26 171 3.2 11.3 0.00 0.00 0.00 86 1015.2
20260903091252 26 193 1.6 6.4 0.00 0.00 0.00 86 1015.2
20260903090522 26 190 3.2 9.7 0.00 0.00 0.00 86 1015.0
20260903090022 26 165 3.2 12.9 0.00 0.00 0.00 86 1015.2
20260903085521 26 171 3.2 12.9 0.00 0.00 0.00 86 1015.2
20260903085015 26 200 3.2 9.7 0.00 0.00 0.00 86 1015.2
20260903084512 26 171 3.2 9.7 0.00 0.00 0.00 86 1015.3
20260903084012 26 172 3.2 4.8 0.00 0.00 0.00 85 1015.2
20260903083512 26 174 1.6 9.7 0.00 0.00 0.00 85 1015.2
20260903083012 26 178 1.6 9.7 0.00 0.00 0.00 84 1015.2
20260903081511 26 169 1.6 8.0 0.00 0.00 0.00 84 1015.2
20260903081007 26 170 3.2 11.3 0.00 0.00 0.00 83 1015.2
20260903080505 26 171 3.2 11.3 0.00 0.00 0.00 83 1015.2
20260903080004 26 150 4.8 14.5 0.00 0.00 0.00 83 1015.2
20260903075503 26 153 3.2 14.5 0.00 0.00 0.00 82 1014.9
20260903075004 26 167 1.6 12.9 0.00 0.00 0.00 81 1014.9
20260903074503 26 173 1.6 9.7 0.00 0.00 0.00 81 1014.9
20260903074004 26 234 1.6 9.7 0.00 0.00 0.00 80 1015.0
20260903073502 27 222 1.6 6.4 0.00 0.00 0.00 79 1015.0
20260903073233 27 225 0.0 6.4 0.00 0.00 0.00 79 1015.3
20260903072501 27 225 1.6 6.4 0.00 0.00 0.00 78 1015.2
20260903071959 27 225 3.2 14.5 0.00 0.00 0.00 78 1015.2
20260903071502 27 209 3.2 14.5 0.00 0.00 0.00 78 1015.2
20260903070955 27 178 1.6 9.7 0.00 0.00 0.00 78 1015.3
20260903070449 27 168 1.6 9.7 0.00 0.00 0.00 78 1015.3
20260903065944 27 171 3.2 8.0 0.00 0.00 0.00 78 1015.4
20260903065438 27 171 3.2 14.5 0.00 0.00 0.00 77 1015.5
20260903064932 27 171 4.8 14.5 0.00 0.00 0.00 77 1015.5
20260903064426 27 156 3.2 12.9 0.00 0.00 0.00 78 1015.5
20260903063919 27 165 1.6 9.7 0.00 0.00 0.00 78 1015.4
20260903063414 27 165 1.6 6.4 0.00 0.00 0.00 77 1015.5
20260903062913 27 165 3.2 9.7 0.00 0.00 0.00 77 1015.5
20260903062402 27 165 3.2 17.7 0.00 0.00 0.00 76 1015.5
20260903061856 27 178 3.2 17.7 0.00 0.00 0.00 76 1015.5
20260903061350 28 171 3.2 16.1 0.00 0.00 0.00 76 1015.4
20260903060843 28 178 4.8 14.5 0.00 0.00 0.00 76 1015.4
20260903060338 28 185 4.8 14.5 0.00 0.00 0.00 75 1015.4
20260903055326 28 159 3.2 11.3 0.00 0.00 0.00 74 1015.3
20260903054819 28 158 3.2 11.3 0.00 0.00 0.00 74 1015.3
20260903054313 28 163 3.2 11.3 0.00 0.00 0.00 73 1015.3
20260903053807 28 156 3.2 9.7 0.00 0.00 0.00 73 1015.3
20260903053302 28 155 3.2 9.7 0.00 0.00 0.00 73 1015.3
20260903052756 28 157 3.2 9.7 0.00 0.00 0.00 72 1015.4
20260903052250 28 161 3.2 9.7 0.00 0.00 0.00 71 1015.3
20260903052014 28 162 3.2 9.7 0.00 0.00 0.00 70 1015.3
20260903051239 29 159 3.2 9.7 0.00 0.00 0.00 69 1015.3
20260903050732 29 159 1.6 9.7 0.00 0.00 0.00 68 1015.2
20260903050229 29 159 1.6 11.3 0.00 0.00 0.00 67 1015.2
20260903045729 29 160 3.2 11.3 0.00 0.00 0.00 66 1015.0
20260903045227 30 149 3.2 11.3 0.00 0.00 0.00 65 1015.2
20260903044725 30 181 4.8 17.7 0.00 0.00 0.00 64 1015.2
20260903044224 30 175 4.8 17.7 0.00 0.00 0.00 64 1015.2
20260903043724 30 178 4.8 14.5 0.00 0.00 0.00 63 1015.0
20260903043223 30 207 4.8 17.7 0.00 0.00 0.00 63 1014.9
20260903042723 30 150 6.4 17.7 0.00 0.00 0.00 62 1015.0
20260903042220 30 184 4.8 17.7 0.00 0.00 0.00 62 1015.0
20260903041723 30 189 4.8 14.5 0.00 0.00 0.00 62 1014.8
20260903041456 30 227 3.2 12.9 0.00 0.00 0.00 62 1014.8
20260903040716 30 184 4.8 14.5 0.00 0.00 0.00 63 1014.8
20260903040218 31 122 6.4 17.7 0.00 0.00 0.00 65 1014.7
20260903035716 31 175 4.8 17.7 0.00 0.00 0.00 64 1014.7
20260903035216 31 166 3.2 16.1 0.00 0.00 0.00 64 1014.6
20260903034717 31 167 4.8 16.1 0.00 0.00 0.00 64 1014.5
20260903033715 31 188 3.2 12.9 0.00 0.00 0.00 63 1014.3
20260903033210 30 167 4.8 14.5 0.00 0.00 0.00 63 1014.3
20260903032704 30 165 3.2 14.5 0.00 0.00 0.00 61 1014.3
20260903032158 30 169 3.2 14.5 0.00 0.00 0.00 58 1014.2
20260903031652 30 147 3.2 16.1 0.00 0.00 0.00 57 1014.0
20260903031147 30 138 1.6 16.1 0.00 0.00 0.00 57 1014.0
20260903030640 30 156 0.0 0.0 0.00 0.00 0.00 57 1013.7
20260903030405 30 156 0.0 0.0 0.00 0.00 0.00 56 1013.6
20260903025628 30 156 0.0 1.6 0.00 0.00 0.00 56 1013.6
20260903025122 30 156 0.0 1.6 0.00 0.00 0.00 56 1013.5
20260903024616 30 156 0.0 0.0 0.00 0.00 0.00 56 1013.4
20260903024110 30 156 0.0 0.0 0.00 0.00 0.00 56 1013.3
20260903023604 30 156 0.0 0.0 0.00 0.00 0.00 55 1013.3
20260903023058 30 156 0.0 0.0 0.00 0.00 0.00 54 1013.2
20260903022824 30 156 0.0 1.6 0.00 0.00 0.00 55 1013.2
20260903022316 31 156 0.0 1.6 0.00 0.00 0.00 54 1013.2
20260903021540 31 156 0.0 0.0 0.00 0.00 0.00 53 1013.2
20260903020534 31 156 0.0 3.2 0.00 0.00 0.00 51 1013.0
20260903020034 31 156 0.0 3.2 0.00 0.00 0.00 51 1013.0
20260903015534 32 156 0.0 0.0 0.00 0.00 0.00 51 1013.0
20260903015035 32 156 0.0 0.0 0.00 0.00 0.00 50 1012.8
20260903014802 32 156 0.0 0.0 0.00 0.00 0.00 50 1012.8
20260903014032 32 155 0.0 0.0 0.00 0.00 0.00 48 1012.8
20260903013532 32 155 0.0 0.0 0.00 0.00 0.00 47 1012.7
20260903013032 33 155 0.0 1.6 0.00 0.00 0.00 47 1012.7
20260903012530 33 155 0.0 1.6 0.00 0.00 0.00 47 1012.7
20260903012028 33 155 0.0 0.0 0.00 0.00 0.00 46 1012.6
20260903011526 33 155 0.0 1.6 0.00 0.00 0.00 46 1012.6
20260903011024 33 155 0.0 1.6 0.00 0.00 0.00 46 1012.7
20260903010522 33 155 0.0 0.0 0.00 0.00 0.00 46 1012.6
20260903010020 34 155 0.0 1.6 0.00 0.00 0.00 45 1012.6
20260903005749 34 155 0.0 1.6 0.00 0.00 0.00 44 1012.6
20260903005016 34 155 0.0 3.2 0.00 0.00 0.00 44 1012.7
20260903004514 34 155 0.0 3.2 0.00 0.00 0.00 44 1012.7
20260903004014 34 155 0.0 4.8 0.00 0.00 0.00 44 1012.7
20260903003516 35 155 0.0 4.8 0.00 0.00 0.00 43 1012.7
20260903003016 35 155 0.0 3.2 0.00 0.00 0.00 43 1012.7
20260903002508 35 155 1.6 4.8 0.00 0.00 0.00 43 1012.7
20260903002002 35 155 1.6 8.0 0.00 0.00 0.00 42 1012.6
20260903001456 35 155 1.6 8.0 0.00 0.00 0.00 41 1012.7
20260903000952 35 155 1.6 8.0 0.00 0.00 0.00 40 1012.8
20260903000454 36 155 1.6 8.0 0.00 0.00 0.00 39 1012.7
20260902235953 36 155 1.6 8.0 0.00 0.00 0.00 39 1012.8
20260902235452 36 155 3.2 8.0 0.00 0.00 0.00 39 1012.8
20260902235223 36 155 1.6 8.0 0.00 0.00 0.00 38 1012.9
20260902234450 36 155 1.6 8.0 0.00 0.00 0.00 38 1012.9
20260902233950 36 155 1.6 8.0 0.00 0.00 0.00 38 1012.9
20260902233450 36 154 1.6 8.0 0.00 0.00 0.00 38 1012.9
20260902232950 36 211 1.6 6.4 0.00 0.00 0.00 37 1013.0
20260902232450 36 123 1.6 4.8 0.00 0.00 0.00 38 1013.0
20260902231946 36 123 3.2 6.4 0.00 0.00 0.00 38 1012.9
20260902231446 36 121 3.2 11.3 0.00 0.00 0.00 38 1012.9
20260902231217 37 126 3.2 11.3 0.00 0.00 0.00 37 1012.9
20260902230446 37 246 3.2 11.3 0.00 0.00 0.00 38 1012.9
20260902225946 37 125 1.6 6.4 0.00 0.00 0.00 38 1012.9
20260902225449 37 117 1.6 6.4 0.00 0.00 0.00 37 1013.0
20260902225219 37 114 1.6 8.0 0.00 0.00 0.00 38 1013.0
20260902224449 37 145 3.2 8.0 0.00 0.00 0.00 38 1013.0
20260902223948 37 118 1.6 8.0 0.00 0.00 0.00 38 1013.0
20260902223444 37 136 1.6 12.9 0.00 0.00 0.00 38 1012.9
20260902222942 37 179 3.2 12.9 0.00 0.00 0.00 38 1013.0
20260902221942 37 115 3.2 9.7 0.00 0.00 0.00 39 1013.0
20260902221442 37 257 3.2 9.7 0.00 0.00 0.00 37 1013.1
20260902220944 37 166 3.2 9.7 0.00 0.00 0.00 38 1013.2
20260902220437 37 177 1.6 9.7 0.00 0.00 0.00 39 1013.2